| time (UTC) | temp F | wind direction | speed knots | gust knots | rain 1hr in | rain 24hr in | rain mn in | humidity % | barometer mb |
| 20260504045816 | 57 | 203 | 4.3 | 8.7 | 0.00 | 0.00 | 0.00 | 41 | 999.7 |
| 20260504044836 | 57 | 203 | 4.3 | 6.1 | 0.00 | 0.00 | 0.00 | 41 | 999.9 |
| 20260504043816 | 57 | 203 | 5.2 | 7.0 | 0.00 | 0.00 | 0.00 | 43 | 1000.0 |
| 20260504042836 | 56 | 203 | 3.5 | 7.0 | 0.00 | 0.00 | 0.00 | 42 | 1000.2 |
| 20260504041816 | 56 | 203 | 3.5 | 5.2 | 0.00 | 0.00 | 0.00 | 43 | 1000.5 |
| 20260504040816 | 56 | 203 | 3.5 | 5.2 | 0.00 | 0.00 | 0.00 | 43 | 1000.8 |
| 20260504035815 | 56 | 203 | 4.3 | 7.0 | 0.00 | 0.00 | 0.00 | 42 | 1001.1 |
| 20260504034836 | 56 | 203 | 4.3 | 5.2 | 0.00 | 0.00 | 0.00 | 42 | 1001.3 |
| 20260504033815 | 56 | 203 | 3.5 | 7.0 | 0.00 | 0.00 | 0.00 | 42 | 1001.5 |
| 20260504032816 | 57 | 203 | 4.3 | 6.1 | 0.00 | 0.00 | 0.00 | 41 | 1001.9 |
| 20260504031836 | 57 | 203 | 3.5 | 5.2 | 0.00 | 0.00 | 0.00 | 39 | 1002.0 |
| 20260504030816 | 57 | 203 | 3.5 | 5.2 | 0.00 | 0.00 | 0.00 | 39 | 1002.4 |
| 20260504025816 | 57 | 203 | 3.5 | 5.2 | 0.00 | 0.00 | 0.00 | 38 | 1002.4 |
| 20260504024836 | 56 | 225 | 2.6 | 5.2 | 0.00 | 0.00 | 0.00 | 39 | 1002.6 |
| 20260504023836 | 57 | 203 | 4.3 | 5.2 | 0.00 | 0.00 | 0.00 | 40 | 1002.7 |
| 20260504022816 | 57 | 225 | 2.6 | 4.3 | 0.00 | 0.00 | 0.00 | 38 | 1002.9 |
| 20260504021816 | 57 | 225 | 2.6 | 3.5 | 0.00 | 0.00 | 0.00 | 38 | 1003.0 |
| 20260504020815 | 58 | 225 | 3.5 | 4.3 | 0.00 | 0.00 | 0.00 | 36 | 1003.1 |
| 20260504015856 | 59 | 225 | 1.7 | 2.6 | 0.00 | 0.00 | 0.00 | 34 | 1003.1 |
| 20260504014815 | 60 | 225 | 0.9 | 1.7 | 0.00 | 0.00 | 0.00 | 33 | 1003.2 |
| 20260504013816 | 60 | 225 | 1.7 | 2.6 | 0.00 | 0.00 | 0.00 | 33 | 1003.2 |
| 20260504012816 | 61 | 248 | 1.7 | 2.6 | 0.00 | 0.00 | 0.00 | 31 | 1003.4 |
| 20260504011836 | 62 | 270 | 3.5 | 5.2 | 0.00 | 0.00 | 0.00 | 31 | 1003.5 |
| 20260504010816 | 63 | 270 | 2.6 | 5.2 | 0.00 | 0.00 | 0.00 | 28 | 1003.4 |
| 20260504005816 | 63 | 270 | 5.2 | 7.8 | 0.00 | 0.00 | 0.00 | 30 | 1003.5 |
| 20260504004815 | 64 | 270 | 6.1 | 8.7 | 0.00 | 0.00 | 0.00 | 30 | 1003.5 |
| 20260504003836 | 65 | 270 | 7.0 | 9.6 | 0.00 | 0.00 | 0.00 | 28 | 1003.5 |
| 20260504002836 | 65 | 270 | 5.2 | 7.8 | 0.00 | 0.00 | 0.00 | 28 | 1003.4 |
| 20260504001815 | 66 | 270 | 4.3 | 7.8 | 0.00 | 0.00 | 0.00 | 27 | 1003.5 |
| 20260504000815 | 66 | 270 | 7.0 | 9.6 | 0.00 | 0.00 | 0.00 | 27 | 1003.5 |
| 20260503235815 | 67 | 270 | 7.0 | 12.2 | 0.00 | 0.00 | 0.00 | 25 | 1003.4 |
| 20260503234815 | 67 | 270 | 8.7 | 12.2 | 0.00 | 0.00 | 0.00 | 24 | 1003.5 |
| 20260503233815 | 67 | 270 | 7.0 | 9.6 | 0.00 | 0.00 | 0.00 | 25 | 1003.6 |
| 20260503232815 | 67 | 270 | 7.8 | 11.3 | 0.00 | 0.00 | 0.00 | 27 | 1003.8 |
| 20260503231815 | 66 | 293 | 3.5 | 9.6 | 0.00 | 0.00 | 0.00 | 28 | 1003.8 |
| 20260503230815 | 66 | 270 | 8.7 | 11.3 | 0.00 | 0.00 | 0.00 | 28 | 1003.7 |
| 20260503225835 | 67 | 270 | 5.2 | 7.8 | 0.00 | 0.00 | 0.00 | 25 | 1003.9 |
| 20260503224815 | 68 | 315 | 4.3 | 11.3 | 0.00 | 0.00 | 0.00 | 26 | 1003.8 |
| 20260503223815 | 68 | 270 | 7.0 | 11.3 | 0.00 | 0.00 | 0.00 | 24 | 1003.8 |
| 20260503222815 | 69 | 270 | 10.4 | 13.9 | 0.00 | 0.00 | 0.00 | 26 | 1003.9 |
| 20260503221815 | 68 | 270 | 4.3 | 7.0 | 0.00 | 0.00 | 0.00 | 27 | 1004.0 |
| 20260503220836 | 69 | 270 | 8.7 | 13.9 | 0.00 | 0.00 | 0.00 | 25 | 1004.0 |
| 20260503215815 | 69 | 270 | 7.8 | 11.3 | 0.00 | 0.00 | 0.00 | 25 | 1004.2 |
| 20260503214815 | 69 | 248 | 9.6 | 14.8 | 0.00 | 0.00 | 0.00 | 23 | 1004.3 |
| 20260503213815 | 68 | 293 | 6.1 | 9.6 | 0.00 | 0.00 | 0.00 | 23 | 1004.5 |
| 20260503212816 | 68 | 270 | 9.6 | 15.6 | 0.00 | 0.00 | 0.00 | 25 | 1004.7 |
| 20260503211815 | 69 | 315 | 6.1 | 7.8 | 0.00 | 0.00 | 0.00 | 25 | 1004.8 |
| 20260503210815 | 69 | 293 | 6.1 | 9.6 | 0.00 | 0.00 | 0.00 | 27 | 1004.9 |
| 20260503205815 | 68 | 315 | 5.2 | 8.7 | 0.00 | 0.00 | 0.00 | 26 | 1005.1 |
| 20260503204815 | 68 | 315 | 6.1 | 8.7 | 0.00 | 0.00 | 0.00 | 26 | 1005.1 |
| 20260503203815 | 67 | 315 | 6.1 | 11.3 | 0.00 | 0.00 | 0.00 | 27 | 1005.3 |
| 20260503202815 | 67 | 338 | 5.2 | 8.7 | 0.00 | 0.00 | 0.00 | 25 | 1005.4 |
| 20260503201835 | 67 | 270 | 7.8 | 11.3 | 0.00 | 0.00 | 0.00 | 28 | 1005.6 |
| 20260503200855 | 66 | 315 | 6.1 | 10.4 | 0.00 | 0.00 | 0.00 | 24 | 1005.9 |
| 20260503195815 | 66 | 315 | 5.2 | 7.8 | 0.00 | 0.00 | 0.00 | 25 | 1005.9 |
| 20260503194835 | 66 | 315 | 7.0 | 9.6 | 0.00 | 0.00 | 0.00 | 25 | 1006.0 |
| 20260503193815 | 66 | 270 | 6.1 | 9.6 | 0.00 | 0.00 | 0.00 | 28 | 1006.0 |
| 20260503192855 | 66 | 293 | 2.6 | 5.2 | 0.00 | 0.00 | 0.00 | 25 | 1006.2 |
| 20260503191815 | 66 | 315 | 8.7 | 12.2 | 0.00 | 0.00 | 0.00 | 29 | 1006.2 |
| 20260503190815 | 65 | 315 | 6.1 | 12.2 | 0.00 | 0.00 | 0.00 | 25 | 1006.2 |
| 20260503185835 | 65 | 338 | 6.1 | 9.6 | 0.00 | 0.00 | 0.00 | 27 | 1006.7 |
| 20260503184815 | 65 | 315 | 7.0 | 11.3 | 0.00 | 0.00 | 0.00 | 27 | 1006.8 |
| 20260503183815 | 65 | 315 | 9.6 | 17.4 | 0.00 | 0.00 | 0.00 | 28 | 1006.9 |
| 20260503182815 | 65 | 315 | 7.0 | 11.3 | 0.00 | 0.00 | 0.00 | 23 | 1006.8 |
| 20260503181815 | 65 | 338 | 6.1 | 9.6 | 0.00 | 0.00 | 0.00 | 23 | 1007.0 |
| 20260503180815 | 65 | 270 | 4.3 | 8.7 | 0.00 | 0.00 | 0.00 | 21 | 1007.1 |
| 20260503175817 | 65 | 23 | 4.3 | 7.8 | 0.00 | 0.00 | 0.00 | 23 | 1007.1 |
| 20260503174817 | 64 | 315 | 5.2 | 8.7 | 0.00 | 0.00 | 0.00 | 25 | 1007.1 |
| 20260503173817 | 64 | 315 | 6.1 | 9.6 | 0.00 | 0.00 | 0.00 | 22 | 1007.2 |
| 20260503172837 | 64 | 315 | 8.7 | 11.3 | 0.00 | 0.00 | 0.00 | 25 | 1007.4 |
| 20260503171817 | 63 | 315 | 7.8 | 12.2 | 0.00 | 0.00 | 0.00 | 25 | 1007.4 |
| 20260503170817 | 63 | 315 | 4.3 | 7.0 | 0.00 | 0.00 | 0.00 | 24 | 1007.5 |
| 20260503150816 | 63 | 0 | 4.3 | 9.6 | 0.00 | 0.00 | 0.00 | 42 | 1007.5 |
| 20260503130837 | 54 | 315 | 3.5 | 5.2 | 0.00 | 0.00 | 0.00 | 60 | 1006.8 |
| 20260503110816 | 40 | 338 | 2.6 | 2.6 | 0.00 | 0.00 | 0.00 | 83 | 1004.7 |
| 20260503080816 | 48 | 113 | 0.9 | 1.7 | 0.00 | 0.00 | 0.00 | 65 | 1005.3 |
| 20260503072816 | 50 | 113 | 0.9 | 1.7 | 0.00 | 0.00 | 0.00 | 59 | 1005.4 |
| 20260503071816 | 50 | 158 | 1.7 | 2.6 | 0.00 | 0.00 | 0.00 | 59 | 1005.6 |
| 20260503070816 | 50 | 158 | 2.6 | 3.5 | 0.00 | 0.00 | 0.00 | 59 | 1005.8 |